Station Historical Data
Daily Summary for June 20, 2017 Units:  English    Metric   Both
« Previous Day
Next Day »
Daily Weekly Monthly Yearly Custom
  High: Low: Average:
Temperature: 93.3 °F 74.4 °F 82.4 °F
Dew Point: 68.3 °F 51.4 °F 61.6 °F
Humidity: 65 % 35 % 50 %
Wind Speed: 14.0 mph 0.0 mph 1.7 mph
Wind Gust: 19.0 mph - -
Wind:- - ESE
Pressure: 29.82 in 29.75 in -
Precipitation: 0.00 in    
Historical Graphs
 
 
Tabular Data for June 20, 2017
Time Temperature Dew Point Pressure Wind Wind Speed Wind Gust Humidity Rainfall Rate (Hourly) solar
00:00 78.0 °F 65.3 °F 29.80 in Calm   6.0 mph 65 % 0.00 in 0.00 W/m2
00:05 77.9 °F 65.2 °F 29.79 in East 2.0 mph 6.0 mph 65 % 0.00 in 0.00 W/m2
00:10 77.8 °F 65.1 °F 29.79 in Calm   6.0 mph 65 % 0.00 in 0.00 W/m2
00:15 77.7 °F 65.0 °F 29.79 in East 1.0 mph 6.0 mph 65 % 0.00 in 0.00 W/m2
00:20 77.6 °F 64.9 °F 29.79 in East 6.0 mph 7.0 mph 65 % 0.00 in 0.00 W/m2
00:25 77.5 °F 64.8 °F 29.79 in ESE 5.0 mph 8.0 mph 65 % 0.00 in 0.00 W/m2
00:30 77.5 °F 64.8 °F 29.79 in East 4.0 mph 8.0 mph 65 % 0.00 in 0.00 W/m2
00:35 77.5 °F 64.4 °F 29.79 in ESE 1.0 mph 9.0 mph 64 % 0.00 in 0.00 W/m2
00:40 77.5 °F 64.4 °F 29.79 in East 6.0 mph 11.0 mph 64 % 0.00 in 0.00 W/m2
00:45 77.4 °F 64.3 °F 29.79 in East 5.0 mph 7.0 mph 64 % 0.00 in 0.00 W/m2
00:50 77.4 °F 64.3 °F 29.79 in ESE 7.0 mph 9.0 mph 64 % 0.00 in 0.00 W/m2
00:55 77.4 °F 64.3 °F 29.79 in Calm   8.0 mph 64 % 0.00 in 0.00 W/m2
01:00 77.4 °F 63.8 °F 29.79 in East 6.0 mph 12.0 mph 63 % 0.00 in 0.00 W/m2
01:05 77.4 °F 63.8 °F 29.79 in East 6.0 mph 8.0 mph 63 % 0.00 in 0.00 W/m2
01:11 77.4 °F 63.4 °F 29.79 in East 8.0 mph 12.0 mph 62 % 0.00 in 0.00 W/m2
01:16 77.4 °F 63.4 °F 29.79 in Calm   8.0 mph 62 % 0.00 in 0.00 W/m2
01:21 77.4 °F 63.4 °F 29.79 in East 2.0 mph 12.0 mph 62 % 0.00 in 0.00 W/m2
01:28 77.3 °F 63.3 °F 29.79 in East 13.0 mph 13.0 mph 62 % 0.00 in 0.00 W/m2
01:33 77.3 °F 62.8 °F 29.79 in Calm   10.0 mph 61 % 0.00 in 0.00 W/m2
01:38 77.2 °F 62.7 °F 29.79 in Calm   8.0 mph 61 % 0.00 in 0.00 W/m2
01:43 77.2 °F 62.7 °F 29.79 in East 5.0 mph 9.0 mph 61 % 0.00 in 0.00 W/m2
01:49 77.1 °F 62.6 °F 29.78 in East 2.0 mph 13.0 mph 61 % 0.00 in 0.00 W/m2
01:54 77.0 °F 62.5 °F 29.79 in ESE 5.0 mph 11.0 mph 61 % 0.00 in 0.00 W/m2
01:55 77.0 °F 62.1 °F 29.78 in ESE 5.0 mph 11.0 mph 60 % 0.00 in 0.00 W/m2
02:00 76.9 °F 62.0 °F 29.78 in East 4.0 mph 11.0 mph 60 % 0.00 in 0.00 W/m2
02:05 76.8 °F 61.9 °F 29.78 in Calm   9.0 mph 60 % 0.00 in 0.00 W/m2
02:10 76.7 °F 61.3 °F 29.78 in East 11.0 mph 14.0 mph 59 % 0.00 in 0.00 W/m2
02:15 76.6 °F 61.2 °F 29.78 in Calm   13.0 mph 59 % 0.00 in 0.00 W/m2
02:20 76.5 °F 60.6 °F 29.78 in ESE 6.0 mph 12.0 mph 58 % 0.00 in 0.00 W/m2
02:25 76.5 °F 60.2 °F 29.78 in Calm   13.0 mph 57 % 0.00 in 0.00 W/m2
02:30 76.4 °F 60.1 °F 29.78 in Calm   11.0 mph 57 % 0.00 in 0.00 W/m2
02:35 76.4 °F 60.1 °F 29.78 in Calm   14.0 mph 57 % 0.00 in 0.00 W/m2
02:37 76.4 °F 60.1 °F 29.78 in East 7.0 mph 9.0 mph 57 % 0.00 in 0.00 W/m2
02:42 76.4 °F 60.1 °F 29.78 in East 10.0 mph 10.0 mph 57 % 0.00 in 0.00 W/m2
02:47 76.3 °F 59.5 °F 29.77 in ESE 7.0 mph 11.0 mph 56 % 0.00 in 0.00 W/m2
02:52 76.2 °F 58.9 °F 29.78 in East 14.0 mph 15.0 mph 55 % 0.00 in 0.00 W/m2
02:57 76.2 °F 58.4 °F 29.77 in Calm   14.0 mph 54 % 0.00 in 0.00 W/m2
03:02 76.2 °F 57.8 °F 29.78 in Calm   14.0 mph 53 % 0.00 in 0.00 W/m2
03:07 76.2 °F 57.8 °F 29.78 in Calm   14.0 mph 53 % 0.00 in 0.00 W/m2
03:12 76.1 °F 57.8 °F 29.78 in East 5.0 mph 18.0 mph 53 % 0.00 in 0.00 W/m2
03:17 76.1 °F 57.2 °F 29.77 in Calm   9.0 mph 52 % 0.00 in 0.00 W/m2
03:22 76.1 °F 57.2 °F 29.77 in East 11.0 mph 11.0 mph 52 % 0.00 in 0.00 W/m2
03:27 76.0 °F 57.1 °F 29.77 in ESE 11.0 mph 18.0 mph 52 % 0.00 in 0.00 W/m2
03:32 76.0 °F 56.6 °F 29.78 in East 13.0 mph 15.0 mph 51 % 0.00 in 0.00 W/m2
03:37 75.9 °F 56.5 °F 29.78 in East 12.0 mph 19.0 mph 51 % 0.00 in 0.00 W/m2
03:42 75.8 °F 56.9 °F 29.78 in SE 1.0 mph 14.0 mph 52 % 0.00 in 0.00 W/m2
03:47 75.8 °F 56.4 °F 29.78 in ESE 5.0 mph 13.0 mph 51 % 0.00 in 0.00 W/m2
03:52 75.7 °F 56.3 °F 29.78 in East 1.0 mph 11.0 mph 51 % 0.00 in 0.00 W/m2
03:57 75.6 °F 55.7 °F 29.78 in ESE 7.0 mph 13.0 mph 50 % 0.00 in 0.00 W/m2
04:02 75.5 °F 55.0 °F 29.78 in East 1.0 mph 11.0 mph 49 % 0.00 in 0.00 W/m2
04:07 75.5 °F 55.0 °F 29.78 in Calm   13.0 mph 49 % 0.00 in 0.00 W/m2
04:12 75.4 °F 54.4 °F 29.78 in East 6.0 mph 14.0 mph 48 % 0.00 in 0.00 W/m2
04:17 75.4 °F 54.9 °F 29.78 in ESE 4.0 mph 7.0 mph 49 % 0.00 in 0.00 W/m2
04:22 75.4 °F 54.9 °F 29.78 in ESE 4.0 mph 16.0 mph 49 % 0.00 in 0.00 W/m2
04:27 75.4 °F 54.4 °F 29.78 in East 2.0 mph 11.0 mph 48 % 0.00 in 0.00 W/m2
04:32 75.3 °F 53.7 °F 29.78 in ESE 6.0 mph 14.0 mph 47 % 0.00 in 0.00 W/m2
04:38 75.3 °F 53.7 °F 29.78 in East 1.0 mph 9.0 mph 47 % 0.00 in 0.00 W/m2
04:43 75.3 °F 53.7 °F 29.78 in East 3.0 mph 14.0 mph 47 % 0.00 in 0.00 W/m2
04:48 75.3 °F 53.7 °F 29.78 in East 5.0 mph 11.0 mph 47 % 0.00 in 0.00 W/m2
04:53 75.3 °F 53.1 °F 29.78 in East 2.0 mph 8.0 mph 46 % 0.00 in 0.00 W/m2
04:58 75.3 °F 53.1 °F 29.78 in SE 1.0 mph 13.0 mph 46 % 0.00 in 0.00 W/m2
05:03 75.2 °F 53.0 °F 29.79 in East 2.0 mph 14.0 mph 46 % 0.00 in 0.00 W/m2
05:08 75.2 °F 52.4 °F 29.79 in East 12.0 mph 12.0 mph 45 % 0.00 in 0.00 W/m2
05:13 75.2 °F 52.4 °F 29.79 in Calm   7.0 mph 45 % 0.00 in 0.00 W/m2
05:18 75.2 °F 53.0 °F 29.79 in Calm   14.0 mph 46 % 0.00 in 0.00 W/m2
05:23 75.2 °F 52.4 °F 29.79 in East 2.0 mph 13.0 mph 45 % 0.00 in 0.00 W/m2
05:28 75.1 °F 52.3 °F 29.79 in East 1.0 mph 13.0 mph 45 % 0.00 in 0.00 W/m2
05:33 75.1 °F 52.3 °F 29.80 in Calm   15.0 mph 45 % 0.00 in 0.00 W/m2
05:39 75.0 °F 52.2 °F 29.80 in East 8.0 mph 11.0 mph 45 % 0.00 in 5.00 W/m2
05:44 75.0 °F 52.8 °F 29.80 in ESE 7.0 mph 12.0 mph 46 % 0.00 in 7.00 W/m2
05:49 74.9 °F 52.2 °F 29.80 in ESE 4.0 mph 9.0 mph 45 % 0.00 in 11.00 W/m2
05:54 74.9 °F 52.2 °F 29.80 in East 6.0 mph 8.0 mph 45 % 0.00 in 12.00 W/m2
05:55 74.9 °F 52.2 °F 29.80 in East 7.0 mph 8.0 mph 45 % 0.00 in 14.00 W/m2
06:00 74.9 °F 52.8 °F 29.80 in East 8.0 mph 13.0 mph 46 % 0.00 in 16.00 W/m2
06:05 74.8 °F 52.1 °F 29.80 in ESE 1.0 mph 13.0 mph 45 % 0.00 in 18.00 W/m2
06:10 74.8 °F 52.1 °F 29.80 in East 2.0 mph 12.0 mph 45 % 0.00 in 21.00 W/m2
06:15 74.8 °F 52.1 °F 29.80 in ESE 5.0 mph 14.0 mph 45 % 0.00 in 28.00 W/m2
06:20 74.7 °F 51.4 °F 29.80 in ENE 4.0 mph 12.0 mph 44 % 0.00 in 40.00 W/m2
06:25 74.7 °F 51.4 °F 29.80 in Calm   11.0 mph 44 % 0.00 in 51.00 W/m2
06:30 74.7 °F 51.4 °F 29.80 in ENE 5.0 mph 12.0 mph 44 % 0.00 in 63.00 W/m2
06:35 74.7 °F 52.0 °F 29.80 in ENE 5.0 mph 11.0 mph 45 % 0.00 in 79.00 W/m2
06:40 74.7 °F 52.0 °F 29.80 in Calm   14.0 mph 45 % 0.00 in 90.00 W/m2
06:45 74.6 °F 53.1 °F 29.80 in East 1.0 mph 11.0 mph 47 % 0.00 in 104.00 W/m2
06:50 74.6 °F 52.5 °F 29.80 in ENE 2.0 mph 13.0 mph 46 % 0.00 in 123.00 W/m2
06:52 74.5 °F 53.0 °F 29.80 in ESE 4.0 mph 12.0 mph 47 % 0.00 in 132.00 W/m2
06:57 74.4 °F 52.9 °F 29.80 in East 2.0 mph 8.0 mph 47 % 0.00 in 144.00 W/m2
07:02 74.4 °F 52.9 °F 29.80 in East 1.0 mph 9.0 mph 47 % 0.00 in 167.00 W/m2
07:07 74.4 °F 52.9 °F 29.80 in East 2.0 mph 12.0 mph 47 % 0.00 in 185.00 W/m2
07:12 74.4 °F 53.5 °F 29.81 in ESE 4.0 mph 8.0 mph 48 % 0.00 in 206.00 W/m2
07:17 74.4 °F 53.5 °F 29.80 in East 2.0 mph 7.0 mph 48 % 0.00 in 225.00 W/m2
07:22 74.4 °F 53.5 °F 29.80 in ESE 6.0 mph 8.0 mph 48 % 0.00 in 241.00 W/m2
07:27 74.4 °F 54.0 °F 29.80 in Calm   9.0 mph 49 % 0.00 in 260.00 W/m2
07:32 74.4 °F 54.0 °F 29.81 in Calm   5.0 mph 49 % 0.00 in 276.00 W/m2
07:34 74.4 °F 54.0 °F 29.81 in East 4.0 mph 7.0 mph 49 % 0.00 in 281.00 W/m2
07:39 74.4 °F 54.0 °F 29.81 in Calm   8.0 mph 49 % 0.00 in 294.00 W/m2
07:44 74.4 °F 54.6 °F 29.81 in East 4.0 mph 11.0 mph 50 % 0.00 in 311.00 W/m2
07:49 74.5 °F 55.2 °F 29.81 in ESE 5.0 mph 8.0 mph 51 % 0.00 in 329.00 W/m2
07:50 74.5 °F 55.2 °F 29.81 in Calm   8.0 mph 51 % 0.00 in 330.00 W/m2
07:55 74.6 °F 55.3 °F 29.81 in ESE 5.0 mph 8.0 mph 51 % 0.00 in 346.00 W/m2
08:00 74.7 °F 55.9 °F 29.81 in East 6.0 mph 8.0 mph 52 % 0.00 in 360.00 W/m2
08:05 74.8 °F 56.0 °F 29.81 in East 1.0 mph 8.0 mph 52 % 0.00 in 376.00 W/m2
08:10 74.9 °F 56.6 °F 29.81 in East 1.0 mph 6.0 mph 53 % 0.00 in 392.00 W/m2
08:15 75.0 °F 56.7 °F 29.81 in Calm   9.0 mph 53 % 0.00 in 410.00 W/m2
08:20 75.1 °F 56.8 °F 29.81 in ESE 1.0 mph 6.0 mph 53 % 0.00 in 425.00 W/m2
08:25 75.3 °F 57.0 °F 29.81 in East 2.0 mph 8.0 mph 53 % 0.00 in 439.00 W/m2
08:30 75.5 °F 57.2 °F 29.81 in Calm   9.0 mph 53 % 0.00 in 457.00 W/m2
08:35 75.7 °F 57.4 °F 29.81 in Calm   7.0 mph 53 % 0.00 in 471.00 W/m2
08:40 75.9 °F 58.1 °F 29.81 in East 1.0 mph 8.0 mph 54 % 0.00 in 487.00 W/m2
08:45 76.1 °F 58.3 °F 29.82 in East 5.0 mph 6.0 mph 54 % 0.00 in 503.00 W/m2
08:50 76.3 °F 58.5 °F 29.82 in ESE 2.0 mph 11.0 mph 54 % 0.00 in 517.00 W/m2
08:55 76.6 °F 58.7 °F 29.81 in East 4.0 mph 9.0 mph 54 % 0.00 in 533.00 W/m2
09:00 76.8 °F 58.9 °F 29.82 in East 2.0 mph 8.0 mph 54 % 0.00 in 547.00 W/m2
09:05 77.1 °F 59.2 °F 29.82 in Calm   4.0 mph 54 % 0.00 in 561.00 W/m2
09:11 77.3 °F 59.9 °F 29.82 in Calm   5.0 mph 55 % 0.00 in 571.00 W/m2
09:16 77.6 °F 60.7 °F 29.82 in Calm   1.0 mph 56 % 0.00 in 589.00 W/m2
09:21 78.0 °F 61.5 °F 29.82 in Calm     57 % 0.00 in 603.00 W/m2
09:26 78.3 °F 61.3 °F 29.82 in Calm     56 % 0.00 in 615.00 W/m2
09:31 78.7 °F 62.7 °F 29.82 in Calm     58 % 0.00 in 629.00 W/m2
09:36 79.2 °F 63.2 °F 29.82 in Calm     58 % 0.00 in 643.00 W/m2
09:41 79.5 °F 63.4 °F 29.82 in Calm     58 % 0.00 in 657.00 W/m2
09:46 79.8 °F 62.7 °F 29.82 in Calm     56 % 0.00 in 670.00 W/m2
09:51 80.1 °F 63.0 °F 29.82 in Calm     56 % 0.00 in 684.00 W/m2
09:56 80.4 °F 62.2 °F 29.82 in Calm     54 % 0.00 in 694.00 W/m2
10:01 80.7 °F 60.9 °F 29.82 in Calm     51 % 0.00 in 707.00 W/m2
10:06 81.0 °F 60.6 °F 29.82 in Calm     50 % 0.00 in 719.00 W/m2
10:11 81.3 °F 60.3 °F 29.82 in Calm     49 % 0.00 in 731.00 W/m2
10:16 81.6 °F 61.2 °F 29.81 in Calm     50 % 0.00 in 744.00 W/m2
10:21 81.9 °F 62.0 °F 29.81 in Calm     51 % 0.00 in 756.00 W/m2
10:26 82.3 °F 62.9 °F 29.81 in Calm     52 % 0.00 in 766.00 W/m2
10:31 82.8 °F 62.8 °F 29.81 in Calm     51 % 0.00 in 777.00 W/m2
10:36 83.3 °F 62.2 °F 29.81 in Calm     49 % 0.00 in 788.00 W/m2
10:41 83.9 °F 63.3 °F 29.81 in Calm     50 % 0.00 in 798.00 W/m2
10:46 84.6 °F 63.3 °F 29.81 in Calm     49 % 0.00 in 807.00 W/m2
10:51 85.2 °F 63.9 °F 29.81 in Calm     49 % 0.00 in 816.00 W/m2
10:56 85.6 °F 63.7 °F 29.82 in Calm     48 % 0.00 in 823.00 W/m2
11:01 86.0 °F 63.4 °F 29.81 in Calm     47 % 0.00 in 831.00 W/m2
11:06 86.3 °F 64.3 °F 29.82 in Calm     48 % 0.00 in 837.00 W/m2
11:11 86.5 °F 63.9 °F 29.81 in North 1.0 mph 1.0 mph 47 % 0.00 in 847.00 W/m2
11:16 86.7 °F 64.7 °F 29.81 in Calm     48 % 0.00 in 853.00 W/m2
11:21 86.8 °F 64.2 °F 29.81 in Calm   1.0 mph 47 % 0.00 in 861.00 W/m2
11:26 86.9 °F 64.3 °F 29.81 in Calm     47 % 0.00 in 870.00 W/m2
11:31 87.1 °F 63.8 °F 29.81 in Calm     46 % 0.00 in 875.00 W/m2
11:36 87.2 °F 63.9 °F 29.81 in Calm   1.0 mph 46 % 0.00 in 884.00 W/m2
11:41 87.3 °F 64.0 °F 29.81 in Calm     46 % 0.00 in 889.00 W/m2
11:46 87.5 °F 63.6 °F 29.81 in Calm   1.0 mph 45 % 0.00 in 896.00 W/m2
11:51 87.6 °F 61.7 °F 29.81 in Calm     42 % 0.00 in 900.00 W/m2
11:56 87.8 °F 63.2 °F 29.81 in Calm     44 % 0.00 in 905.00 W/m2
12:01 88.1 °F 64.1 °F 29.82 in Calm   4.0 mph 45 % 0.00 in 909.00 W/m2
12:07 88.4 °F 63.7 °F 29.81 in Calm     44 % 0.00 in 916.00 W/m2
12:11 88.7 °F 64.7 °F 29.81 in Calm     45 % 0.00 in 919.00 W/m2
12:12 88.7 °F 64.7 °F 29.81 in Calm     45 % 0.00 in 919.00 W/m2
12:17 89.0 °F 64.9 °F 29.81 in Calm     45 % 0.00 in 919.00 W/m2
12:22 89.3 °F 64.6 °F 29.81 in Calm   4.0 mph 44 % 0.00 in 926.00 W/m2
12:27 89.8 °F 65.0 °F 29.81 in Calm   1.0 mph 44 % 0.00 in 926.00 W/m2
12:32 89.9 °F 64.4 °F 29.81 in WSW 4.0 mph 6.0 mph 43 % 0.00 in 928.00 W/m2
12:37 90.1 °F 63.9 °F 29.81 in Calm   5.0 mph 42 % 0.00 in 930.00 W/m2
12:42 90.5 °F 63.6 °F 29.81 in Calm   3.0 mph 41 % 0.00 in 933.00 W/m2
12:47 90.6 °F 64.4 °F 29.81 in Calm     42 % 0.00 in 935.00 W/m2
12:52 90.6 °F 64.4 °F 29.81 in Calm   2.0 mph 42 % 0.00 in 935.00 W/m2
12:57 90.5 °F 65.0 °F 29.81 in Calm   2.0 mph 43 % 0.00 in 932.00 W/m2
13:02 90.7 °F 63.8 °F 29.81 in Calm     41 % 0.00 in 937.00 W/m2
13:07 91.0 °F 66.1 °F 29.81 in Calm   1.0 mph 44 % 0.00 in 935.00 W/m2
13:12 91.1 °F 63.4 °F 29.81 in Calm   4.0 mph 40 % 0.00 in 937.00 W/m2
13:17 91.3 °F 65.0 °F 29.81 in Calm     42 % 0.00 in 935.00 W/m2
13:22 91.5 °F 64.5 °F 29.81 in West 1.0 mph 3.0 mph 41 % 0.00 in 930.00 W/m2
13:27 91.8 °F 64.1 °F 29.80 in Calm     40 % 0.00 in 928.00 W/m2
13:32 92.2 °F 65.1 °F 29.80 in Calm   6.0 mph 41 % 0.00 in 926.00 W/m2
13:37 92.3 °F 64.5 °F 29.80 in Calm     40 % 0.00 in 926.00 W/m2
13:42 92.7 °F 64.1 °F 29.80 in WSW 4.0 mph 6.0 mph 39 % 0.00 in 919.00 W/m2
13:47 93.0 °F 64.4 °F 29.80 in Calm   2.0 mph 39 % 0.00 in 919.00 W/m2
13:52 92.9 °F 65.0 °F 29.80 in Calm   3.0 mph 40 % 0.00 in 916.00 W/m2
13:57 92.8 °F 63.5 °F 29.80 in Calm     38 % 0.00 in 909.00 W/m2
14:02 92.6 °F 63.3 °F 29.80 in Calm     38 % 0.00 in 905.00 W/m2
14:07 92.4 °F 65.3 °F 29.80 in Calm     41 % 0.00 in 896.00 W/m2
14:12 92.4 °F 65.3 °F 29.80 in Calm   5.0 mph 41 % 0.00 in 898.00 W/m2
14:17 92.4 °F 64.6 °F 29.79 in Calm   3.0 mph 40 % 0.00 in 891.00 W/m2
14:22 92.4 °F 65.3 °F 29.79 in Calm     41 % 0.00 in 886.00 W/m2
14:27 92.4 °F 65.3 °F 29.79 in Calm     41 % 0.00 in 879.00 W/m2
14:32 92.4 °F 64.6 °F 29.79 in Calm   2.0 mph 40 % 0.00 in 872.00 W/m2
14:37 92.3 °F 63.8 °F 29.79 in Calm   6.0 mph 39 % 0.00 in 868.00 W/m2
14:42 92.3 °F 64.5 °F 29.79 in Calm     40 % 0.00 in 863.00 W/m2
14:47 92.3 °F 64.5 °F 29.78 in Calm     40 % 0.00 in 856.00 W/m2
14:52 92.3 °F 63.8 °F 29.79 in NW 1.0 mph 5.0 mph 39 % 0.00 in 838.00 W/m2
14:57 92.3 °F 63.8 °F 29.78 in SW 6.0 mph 6.0 mph 39 % 0.00 in 831.00 W/m2
15:02 92.5 °F 62.5 °F 29.78 in Calm     37 % 0.00 in 823.00 W/m2
15:07 92.8 °F 64.9 °F 29.78 in Calm   2.0 mph 40 % 0.00 in 816.00 W/m2
15:12 92.8 °F 64.9 °F 29.78 in Calm   4.0 mph 40 % 0.00 in 807.00 W/m2
15:17 92.9 °F 63.6 °F 29.78 in Calm   2.0 mph 38 % 0.00 in 795.00 W/m2
15:22 93.1 °F 63.8 °F 29.78 in Calm   5.0 mph 38 % 0.00 in 791.00 W/m2
15:27 93.3 °F 63.9 °F 29.78 in Calm   4.0 mph 38 % 0.00 in 782.00 W/m2
15:32 93.3 °F 63.2 °F 29.78 in Calm   5.0 mph 37 % 0.00 in 768.00 W/m2
15:37 93.3 °F 63.9 °F 29.78 in Calm   1.0 mph 38 % 0.00 in 758.00 W/m2
15:42 93.2 °F 63.1 °F 29.78 in Calm   2.0 mph 37 % 0.00 in 751.00 W/m2
15:47 93.1 °F 63.0 °F 29.77 in Calm   3.0 mph 37 % 0.00 in 740.00 W/m2
15:52 92.9 °F 62.0 °F 29.77 in Calm   4.0 mph 36 % 0.00 in 729.00 W/m2
15:57 92.9 °F 62.0 °F 29.77 in Calm   2.0 mph 36 % 0.00 in 714.00 W/m2
16:02 92.8 °F 62.7 °F 29.77 in WSW 5.0 mph 7.0 mph 37 % 0.00 in 707.00 W/m2
16:07 92.7 °F 62.6 °F 29.77 in Calm   3.0 mph 37 % 0.00 in 694.00 W/m2
16:12 92.7 °F 61.1 °F 29.77 in WSW 1.0 mph 5.0 mph 35 % 0.00 in 682.00 W/m2
16:17 92.8 °F 62.0 °F 29.77 in WSW 2.0 mph 6.0 mph 36 % 0.00 in 670.00 W/m2
16:22 92.8 °F 61.2 °F 29.77 in Calm   5.0 mph 35 % 0.00 in 657.00 W/m2
16:27 92.9 °F 62.8 °F 29.77 in Calm   2.0 mph 37 % 0.00 in 640.00 W/m2
16:32 92.8 °F 61.2 °F 29.77 in Calm     35 % 0.00 in 629.00 W/m2
16:37 92.7 °F 62.6 °F 29.77 in SSW 1.0 mph 5.0 mph 37 % 0.00 in 617.00 W/m2
16:42 92.7 °F 63.4 °F 29.77 in Calm   2.0 mph 38 % 0.00 in 599.00 W/m2
16:47 92.7 °F 62.6 °F 29.76 in SSW 2.0 mph 3.0 mph 37 % 0.00 in 585.00 W/m2
16:52 92.7 °F 62.6 °F 29.76 in SW 4.0 mph 6.0 mph 37 % 0.00 in 571.00 W/m2
16:57 92.6 °F 61.8 °F 29.76 in Calm   3.0 mph 36 % 0.00 in 559.00 W/m2
17:02 92.6 °F 61.8 °F 29.76 in Calm     36 % 0.00 in 547.00 W/m2
17:07 92.5 °F 61.7 °F 29.76 in Calm     36 % 0.00 in 531.00 W/m2
17:12 92.5 °F 64.0 °F 29.76 in WSW 2.0 mph 4.0 mph 39 % 0.00 in 513.00 W/m2
17:17 92.4 °F 63.1 °F 29.76 in Calm   3.0 mph 38 % 0.00 in 499.00 W/m2
17:23 92.3 °F 63.8 °F 29.76 in Calm   4.0 mph 39 % 0.00 in 487.00 W/m2
17:28 92.1 °F 62.1 °F 29.76 in Calm   3.0 mph 37 % 0.00 in 471.00 W/m2
17:33 92.0 °F 64.2 °F 29.76 in Calm   2.0 mph 40 % 0.00 in 455.00 W/m2
17:38 92.0 °F 64.2 °F 29.76 in Calm   3.0 mph 40 % 0.00 in 438.00 W/m2
17:43 91.9 °F 64.9 °F 29.75 in Calm   3.0 mph 41 % 0.00 in 425.00 W/m2
17:48 91.8 °F 63.3 °F 29.75 in Calm   2.0 mph 39 % 0.00 in 410.00 W/m2
17:53 91.6 °F 64.6 °F 29.75 in Calm     41 % 0.00 in 396.00 W/m2
17:58 91.5 °F 64.5 °F 29.75 in WSW 3.0 mph 4.0 mph 41 % 0.00 in 378.00 W/m2
18:03 91.4 °F 63.7 °F 29.75 in West 1.0 mph 4.0 mph 40 % 0.00 in 362.00 W/m2
18:08 91.2 °F 63.5 °F 29.75 in Calm   2.0 mph 40 % 0.00 in 348.00 W/m2
18:13 91.0 °F 63.3 °F 29.75 in Calm   3.0 mph 40 % 0.00 in 330.00 W/m2
18:18 90.8 °F 63.2 °F 29.75 in WSW 2.0 mph 5.0 mph 40 % 0.00 in 318.00 W/m2
18:23 90.6 °F 63.0 °F 29.75 in Calm   2.0 mph 40 % 0.00 in 302.00 W/m2
18:28 90.5 °F 64.3 °F 29.75 in Calm   2.0 mph 42 % 0.00 in 287.00 W/m2
18:33 90.3 °F 62.0 °F 29.75 in WSW 2.0 mph 4.0 mph 39 % 0.00 in 271.00 W/m2
18:38 90.1 °F 63.9 °F 29.75 in Calm   1.0 mph 42 % 0.00 in 253.00 W/m2
18:43 89.8 °F 64.3 °F 29.75 in Calm     43 % 0.00 in 237.00 W/m2
18:48 89.4 °F 64.6 °F 29.75 in Calm   2.0 mph 44 % 0.00 in 223.00 W/m2
18:53 89.0 °F 64.9 °F 29.75 in Calm   1.0 mph 45 % 0.00 in 207.00 W/m2
18:58 88.6 °F 65.8 °F 29.75 in Calm     47 % 0.00 in 195.00 W/m2
19:03 88.2 °F 66.1 °F 29.75 in Calm     48 % 0.00 in 181.00 W/m2
19:08 87.8 °F 66.3 °F 29.75 in Calm   1.0 mph 49 % 0.00 in 165.00 W/m2
19:13 87.4 °F 67.1 °F 29.75 in WSW 1.0 mph 2.0 mph 51 % 0.00 in 146.00 W/m2
19:18 87.0 °F 67.3 °F 29.75 in Calm     52 % 0.00 in 128.00 W/m2
19:23 86.6 °F 67.4 °F 29.75 in Calm     53 % 0.00 in 113.00 W/m2
19:28 86.2 °F 67.6 °F 29.75 in Calm     54 % 0.00 in 95.00 W/m2
19:33 85.8 °F 67.8 °F 29.75 in Calm     55 % 0.00 in 83.00 W/m2
19:38 85.4 °F 67.9 °F 29.75 in Calm     56 % 0.00 in 69.00 W/m2
19:41 85.3 °F 68.3 °F 29.75 in Calm     57 % 0.00 in 62.00 W/m2
19:46 85.0 °F 68.1 °F 29.75 in Calm     57 % 0.00 in 51.00 W/m2
19:51 84.6 °F 68.2 °F 29.75 in Calm     58 % 0.00 in 40.00 W/m2
19:56 84.2 °F 67.8 °F 29.75 in Calm     58 % 0.00 in 32.00 W/m2
20:01 83.8 °F 67.5 °F 29.75 in Calm     58 % 0.00 in 25.00 W/m2
20:06 83.5 °F 67.7 °F 29.75 in Calm     59 % 0.00 in 19.00 W/m2
20:11 83.2 °F 67.4 °F 29.75 in Calm     59 % 0.00 in 16.00 W/m2
20:16 82.9 °F 67.6 °F 29.75 in Calm     60 % 0.00 in 12.00 W/m2
20:21 82.6 °F 67.8 °F 29.75 in Calm     61 % 0.00 in 11.00 W/m2
20:26 82.3 °F 67.5 °F 29.75 in Calm     61 % 0.00 in 9.00 W/m2
20:31 82.1 °F 67.3 °F 29.75 in Calm     61 % 0.00 in 5.00 W/m2
20:36 81.8 °F 67.1 °F 29.75 in Calm     61 % 0.00 in 5.00 W/m2
20:41 81.6 °F 66.9 °F 29.75 in Calm     61 % 0.00 in 0.00 W/m2
20:46 81.4 °F 67.1 °F 29.75 in Calm     62 % 0.00 in 0.00 W/m2
20:51 81.2 °F 66.9 °F 29.75 in Calm     62 % 0.00 in 0.00 W/m2
20:56 81.0 °F 66.8 °F 29.75 in Calm     62 % 0.00 in 0.00 W/m2
20:57 80.9 °F 66.7 °F 29.75 in Calm     62 % 0.00 in 0.00 W/m2
21:02 80.7 °F 66.5 °F 29.76 in Calm     62 % 0.00 in 0.00 W/m2
21:07 80.6 °F 66.4 °F 29.75 in Calm     62 % 0.00 in 0.00 W/m2
21:12 80.5 °F 66.3 °F 29.76 in Calm     62 % 0.00 in 0.00 W/m2
21:17 80.3 °F 66.6 °F 29.76 in Calm     63 % 0.00 in 0.00 W/m2
21:22 80.2 °F 66.5 °F 29.76 in Calm     63 % 0.00 in 0.00 W/m2
21:27 80.1 °F 66.4 °F 29.76 in Calm     63 % 0.00 in 0.00 W/m2
21:32 80.0 °F 66.3 °F 29.76 in Calm     63 % 0.00 in 0.00 W/m2
21:37 79.9 °F 66.2 °F 29.76 in Calm     63 % 0.00 in 0.00 W/m2
21:42 79.8 °F 66.1 °F 29.76 in Calm     63 % 0.00 in 0.00 W/m2
21:47 79.8 °F 66.1 °F 29.76 in Calm     63 % 0.00 in 0.00 W/m2
21:52 79.8 °F 66.1 °F 29.77 in Calm     63 % 0.00 in 0.00 W/m2
21:57 79.8 °F 66.1 °F 29.76 in Calm     63 % 0.00 in 0.00 W/m2
22:02 79.8 °F 66.1 °F 29.77 in Calm     63 % 0.00 in 0.00 W/m2
22:07 79.7 °F 66.0 °F 29.77 in Calm     63 % 0.00 in 0.00 W/m2
22:12 79.6 °F 65.9 °F 29.77 in Calm     63 % 0.00 in 0.00 W/m2
22:17 79.6 °F 65.9 °F 29.77 in Calm     63 % 0.00 in 0.00 W/m2
22:22 79.4 °F 65.7 °F 29.76 in ESE 1.0 mph 4.0 mph 63 % 0.00 in 0.00 W/m2
22:27 79.3 °F 65.6 °F 29.76 in ESE 2.0 mph 5.0 mph 63 % 0.00 in 0.00 W/m2
22:32 79.2 °F 65.5 °F 29.76 in ESE 4.0 mph 7.0 mph 63 % 0.00 in 0.00 W/m2
22:37 79.1 °F 65.0 °F 29.76 in ESE 1.0 mph 5.0 mph 62 % 0.00 in 0.00 W/m2
22:42 79.1 °F 65.0 °F 29.76 in Calm   5.0 mph 62 % 0.00 in 0.00 W/m2
22:43 79.1 °F 65.0 °F 29.76 in Calm   5.0 mph 62 % 0.00 in 0.00 W/m2
22:48 79.0 °F 64.9 °F 29.76 in ESE 5.0 mph 7.0 mph 62 % 0.00 in 0.00 W/m2
22:53 78.9 °F 64.8 °F 29.76 in ESE 4.0 mph 6.0 mph 62 % 0.00 in 0.00 W/m2
22:58 78.9 °F 64.8 °F 29.76 in East 4.0 mph 8.0 mph 62 % 0.00 in 0.00 W/m2
23:03 78.8 °F 64.2 °F 29.76 in East 7.0 mph 7.0 mph 61 % 0.00 in 0.00 W/m2
23:08 78.7 °F 64.1 °F 29.77 in Calm   6.0 mph 61 % 0.00 in 0.00 W/m2
23:13 78.7 °F 64.1 °F 29.77 in ESE 2.0 mph 8.0 mph 61 % 0.00 in 0.00 W/m2
23:18 78.6 °F 64.0 °F 29.77 in Calm   8.0 mph 61 % 0.00 in 0.00 W/m2
23:23 78.5 °F 64.0 °F 29.77 in East 7.0 mph 7.0 mph 61 % 0.00 in 0.00 W/m2
23:28 78.4 °F 63.8 °F 29.77 in Calm   6.0 mph 61 % 0.00 in 0.00 W/m2
23:33 78.4 °F 63.4 °F 29.77 in Calm   6.0 mph 60 % 0.00 in 0.00 W/m2
23:38 78.3 °F 63.3 °F 29.77 in Calm   11.0 mph 60 % 0.00 in 0.00 W/m2
23:43 78.3 °F 63.3 °F 29.77 in East 8.0 mph 9.0 mph 60 % 0.00 in 0.00 W/m2
23:48 78.2 °F 63.2 °F 29.76 in East 2.0 mph 9.0 mph 60 % 0.00 in 0.00 W/m2
23:53 78.2 °F 63.7 °F 29.77 in East 6.0 mph 13.0 mph 61 % 0.00 in 0.00 W/m2
23:58 78.2 °F 63.2 °F 29.77 in Calm   8.0 mph 60 % 0.00 in 0.00 W/m2
Juneau County Weather
Compliments of Weather Underground - 4.5 mb
 WU-history PHP script courtesy of   Juneau County Weather.
powered by Cumulus v1.9.3 (1059)
Ambient Weather VWS v14.00
Top Contact Website Map Copyright © 2007 - 2018 Foresthillweather.com Never base important decisions on this or any weather information obtained from the Internet